TimeCDT,TemperatureF,Dew PointF,Humidity,Sea Level PressureIn,VisibilityMPH,Wind Direction,Wind SpeedMPH,Gust SpeedMPH,PrecipitationIn,Events,Conditions,WindDirDegrees,DateUTC
12:15 AM,72.7,69.4,90,29.79,10.0,SE,12.7,-,N/A,,Clear,140,2013-05-27 05:15:00
12:35 AM,72.5,69.6,91,29.79,10.0,SE,12.7,-,N/A,,Scattered Clouds,140,2013-05-27 05:35:00
12:55 AM,72.1,69.4,91,29.79,10.0,SE,11.5,-,N/A,,Scattered Clouds,140,2013-05-27 05:55:00
1:15 AM,72.0,69.4,92,29.79,10.0,SE,12.7,-,N/A,,Clear,140,2013-05-27 06:15:00
1:35 AM,72.0,69.8,93,29.86,10.0,North,12.7,-,N/A,,Mostly Cloudy,360,2013-05-27 06:35:00
1:55 AM,64.9,60.8,86,29.86,10.0,NNE,27.6,32.2,N/A,,Overcast,30,2013-05-27 06:55:00
2:15 AM,63.9,60.3,88,29.86,10.0,NE,23.0,-,N/A,,Overcast,40,2013-05-27 07:15:00
2:35 AM,63.1,60.8,92,29.86,10.0,NE,20.7,-,N/A,,Overcast,40,2013-05-27 07:35:00
2:55 AM,62.8,60.8,93,29.85,10.0,ENE,19.6,-,N/A,Rain,Light Rain,60,2013-05-27 07:55:00
3:15 AM,62.1,61.0,96,29.84,10.0,East,15.0,-,N/A,Rain,Light Rain,80,2013-05-27 08:15:00
3:35 AM,61.9,61.3,98,29.81,10.0,East,13.8,-,N/A,,Overcast,90,2013-05-27 08:35:00
3:55 AM,61.7,61.7,100,29.81,10.0,East,15.0,-,N/A,,Overcast,90,2013-05-27 08:55:00
4:15 AM,61.7,61.7,100,29.81,10.0,East,13.8,-,N/A,,Overcast,100,2013-05-27 09:15:00
4:35 AM,62.1,61.0,96,29.80,10.0,East,11.5,-,N/A,,Mostly Cloudy,100,2013-05-27 09:35:00
4:55 AM,62.6,61.2,95,29.81,10.0,East,16.1,-,N/A,,Overcast,80,2013-05-27 09:55:00
5:15 AM,62.2,61.2,96,29.82,10.0,East,15.0,-,N/A,,Overcast,80,2013-05-27 10:15:00
5:35 AM,61.9,61.5,99,29.81,10.0,East,17.3,21.9,0.01,Rain,Light Rain,100,2013-05-27 10:35:00
5:55 AM,61.5,61.5,100,29.83,3.0,ENE,12.7,-,0.29,Rain-Thunderstorm,Heavy Thunderstorms and Rain,70,2013-05-27 10:55:00
6:15 AM,61.2,61.2,100,29.85,1.8,East,11.5,-,0.44,Rain-Thunderstorm,Heavy Thunderstorms and Rain,100,2013-05-27 11:15:00
6:35 AM,60.8,60.8,100,29.83,5.0,East,18.4,-,0.61,Rain,Light Rain,90,2013-05-27 11:35:00
6:55 AM,60.6,60.6,100,29.84,10.0,East,20.7,25.3,0.62,Rain,Light Rain,100,2013-05-27 11:55:00
7:15 AM,60.6,60.6,100,29.82,10.0,ESE,17.3,-,0.01,Rain-Thunderstorm,Light Thunderstorms and Rain,110,2013-05-27 12:15:00
7:35 AM,60.8,60.8,100,29.82,10.0,ESE,18.4,21.9,0.01,,Scattered Clouds,110,2013-05-27 12:35:00
7:55 AM,60.8,60.8,100,29.80,10.0,ESE,18.4,-,0.01,,Scattered Clouds,120,2013-05-27 12:55:00
8:15 AM,61.0,61.0,100,29.78,10.0,SE,23.0,28.8,N/A,,Scattered Clouds,140,2013-05-27 13:15:00
8:35 AM,61.9,61.9,100,29.77,10.0,SE,19.6,26.5,N/A,,Scattered Clouds,140,2013-05-27 13:35:00
8:55 AM,62.8,62.4,99,29.78,10.0,SE,17.3,27.6,N/A,,Clear,140,2013-05-27 13:55:00
9:15 AM,64.4,62.2,93,29.76,10.0,SSE,20.7,26.5,N/A,,Clear,150,2013-05-27 14:15:00
9:35 AM,65.7,62.8,90,29.77,10.0,SE,17.3,25.3,N/A,,Clear,140,2013-05-27 14:35:00
9:55 AM,66.9,63.7,89,29.77,10.0,SSE,17.3,24.2,N/A,,Scattered Clouds,150,2013-05-27 14:55:00
10:15 AM,67.8,63.0,84,29.77,10.0,SE,18.4,25.3,N/A,,Scattered Clouds,140,2013-05-27 15:15:00
10:35 AM,68.2,62.8,83,29.78,10.0,SSE,17.3,23.0,N/A,,Clear,150,2013-05-27 15:35:00
10:55 AM,69.4,63.7,82,29.78,10.0,SSE,17.3,-,N/A,,Clear,150,2013-05-27 15:55:00
11:15 AM,70.9,63.7,78,29.78,10.0,SSE,11.5,-,N/A,,Clear,150,2013-05-27 16:15:00
11:35 AM,72.1,64.0,76,29.79,10.0,SSE,18.4,-,N/A,,Clear,150,2013-05-27 16:35:00
11:55 AM,73.2,64.0,73,29.79,10.0,SSE,15.0,-,N/A,,Clear,150,2013-05-27 16:55:00
12:15 PM,73.8,63.7,71,29.78,10.0,SSE,13.8,-,N/A,,Scattered Clouds,150,2013-05-27 17:15:00
12:35 PM,74.8,64.4,70,29.77,10.0,SE,15.0,23.0,N/A,,Mostly Cloudy,140,2013-05-27 17:35:00
12:55 PM,75.2,63.3,66,29.77,10.0,SSE,15.0,-,N/A,,Clear,150,2013-05-27 17:55:00
1:15 PM,76.3,63.0,63,29.76,10.0,SSE,15.0,20.7,N/A,,Clear,150,2013-05-27 18:15:00
1:35 PM,77.5,63.0,61,29.75,10.0,SSE,13.8,19.6,N/A,,Mostly Cloudy,150,2013-05-27 18:35:00
1:55 PM,77.9,63.1,60,29.74,10.0,SE,16.1,-,N/A,,Overcast,130,2013-05-27 18:55:00
2:15 PM,77.7,62.4,59,29.73,10.0,SE,15.0,18.4,N/A,,Overcast,130,2013-05-27 19:15:00
2:35 PM,78.8,62.1,56,29.73,10.0,ESE,16.1,-,N/A,,Overcast,120,2013-05-27 19:35:00
2:55 PM,78.8,62.2,57,29.72,10.0,ESE,11.5,-,N/A,,Overcast,110,2013-05-27 19:55:00
3:15 PM,78.8,62.8,58,29.71,10.0,ESE,13.8,17.3,N/A,,Overcast,110,2013-05-27 20:15:00
3:35 PM,78.6,62.1,57,29.71,10.0,ESE,9.2,-,N/A,,Overcast,120,2013-05-27 20:35:00
3:55 PM,79.2,63.0,57,29.71,10.0,East,13.8,-,N/A,,Overcast,100,2013-05-27 20:55:00
4:15 PM,80.4,63.0,55,29.70,10.0,ESE,16.1,-,N/A,,Overcast,110,2013-05-27 21:15:00
4:35 PM,79.3,62.8,57,29.70,10.0,East,12.7,-,N/A,,Overcast,100,2013-05-27 21:35:00
4:55 PM,79.2,62.8,57,29.69,10.0,East,15.0,-,N/A,,Overcast,100,2013-05-27 21:55:00
5:15 PM,79.0,63.3,59,29.68,10.0,East,13.8,-,N/A,,Overcast,90,2013-05-27 22:15:00
5:35 PM,77.9,63.5,61,29.67,10.0,East,15.0,-,N/A,,Mostly Cloudy,90,2013-05-27 22:35:00
5:55 PM,76.3,64.0,66,29.67,10.0,East,13.8,-,N/A,,Clear,90,2013-05-27 22:55:00
6:15 PM,75.2,64.4,69,29.65,10.0,East,13.8,-,N/A,,Mostly Cloudy,80,2013-05-27 23:15:00
6:35 PM,74.5,65.3,73,29.66,10.0,ENE,13.8,-,N/A,Thunderstorm,Mostly Cloudy,60,2013-05-27 23:35:00
6:55 PM,73.4,65.7,77,29.65,10.0,NE,15.0,-,N/A,Thunderstorm,Mostly Cloudy,50,2013-05-27 23:55:00
7:15 PM,72.5,65.8,80,29.66,10.0,ESE,12.7,19.6,N/A,Rain-Thunderstorm,Light Thunderstorms and Rain,110,2013-05-28 00:15:00
7:35 PM,71.2,66.0,84,29.66,10.0,ENE,13.8,-,0.03,Rain-Thunderstorm,Light Thunderstorms and Rain,70,2013-05-28 00:35:00
7:55 PM,70.7,66.2,86,29.68,10.0,East,11.5,23.0,0.03,Rain-Thunderstorm,Light Thunderstorms and Rain,80,2013-05-28 00:55:00
8:15 PM,70.2,66.2,87,29.64,10.0,ESE,21.9,26.5,N/A,Thunderstorm,Unknown,110,2013-05-28 01:15:00
8:35 PM,69.8,66.6,89,29.64,10.0,ESE,23.0,28.8,N/A,Rain-Thunderstorm,Light Thunderstorms and Rain,120,2013-05-28 01:35:00
8:55 PM,69.3,67.1,93,29.58,10.0,East,23.0,28.8,N/A,Thunderstorm,Clear,90,2013-05-28 01:55:00
9:15 PM,68.9,67.1,94,29.59,10.0,ESE,16.1,23.0,N/A,,Clear,120,2013-05-28 02:15:00
9:35 PM,68.5,66.7,94,29.60,10.0,ESE,21.9,31.1,N/A,,Clear,120,2013-05-28 02:35:00
9:55 PM,67.8,65.1,91,29.61,10.0,ESE,17.3,-,N/A,,Clear,110,2013-05-28 02:55:00
10:15 PM,67.6,64.8,90,29.63,10.0,ESE,11.5,-,N/A,,Clear,110,2013-05-28 03:15:00
10:35 PM,67.8,63.7,87,29.66,10.0,ESE,12.7,16.1,N/A,,Clear,110,2013-05-28 03:35:00
10:55 PM,67.1,64.4,91,29.70,10.0,ESE,4.6,-,N/A,,Clear,110,2013-05-28 03:55:00
11:15 PM,67.1,64.6,92,29.71,10.0,Calm,Calm,-,N/A,,Scattered Clouds,0,2013-05-28 04:15:00
11:35 PM,66.6,64.0,92,29.68,10.0,East,3.5,-,N/A,,Scattered Clouds,100,2013-05-28 04:35:00
11:55 PM,65.5,63.7,94,29.68,10.0,NNW,3.5,-,N/A,,Clear,330,2013-05-28 04:55:00